Karlovy Vary, Czech Republic

6:42 PM CEST on April 29, 2017 (GMT +0200)
Karlovy Vary

Weather History for LKKV - July, 2013

Change the Weather History Date:

Saturday, July 27, 2013

  Actual Average (EDQM) Record (EDQM)
Temperature  
Mean Temperature 75 °F -  
Max Temperature 91 °F 71 °F 91 °F (2013)
Min Temperature 59 °F 54 °F 46 °F (2004)
Cooling Degree Days 10    
Growing Degree Days 25 (Base 50)    
Moisture  
Dew Point 56 °F    
Average Humidity 47    
Maximum Humidity 88    
Minimum Humidity 29    
Precipitation  
Precipitation 0.00 in - - ()
Sea Level Pressure  
Sea Level Pressure 29.95 in    
Wind  
Wind Speed 3 mph ()    
Max Wind Speed 7 mph    
Max Gust Speed -    
Averages and records for this station are not official NWS values.
T = Trace of Precipitation, MM = Missing Value Source: Averaged Metar Reports

Daily Weather History Graph

Daily Weather History Graph

Search for Another Location

Airport or City:

Trip Planner

Search our weather history database for the weather conditions in past years. The results will help you decide how hot, cold, wet, or windy it might be!

Date:

Astronomy

Jul. 27, 2013 Rise Set
Actual Time 5:30 AM CEST 8:58 PM CEST
Civil Twilight 4:50 AM CEST 9:38 PM CEST
Nautical Twilight 3:56 AM CEST 10:31 PM CEST
Astronomical Twilight 2:41 AM CEST 11:44 PM CEST
Moon 10:53 PM CEST (7/27) 11:32 AM CEST (7/27)
Length of Visible Light 16h 48m
Length of Day
15h 28m
Waning Gibbous, 73% of the Moon is Illuminated
Jul 27
Waning Gibbous
Jul 29
Last Quarter
Aug 6
New
Aug 14
First Quarter
Aug 21
Full

Hourly Weather History & Observations

Time (CEST) Temp. Heat Index Dew Point Humidity Pressure Visibility Wind Dir Wind Speed Gust Speed Precip Events Conditions
12:00 AM 66.2 °F - 53.6 °F 64% 30.01 in - ESE 2.3 mph - N/A   Clear
1:00 AM 66.2 °F - 55.4 °F 68% 30.01 in - ESE 2.3 mph - N/A   Clear
2:00 AM 64.4 °F - 53.6 °F 68% 30.01 in - East 3.5 mph - N/A   Clear
3:00 AM 64.4 °F - 53.6 °F 68% 30.01 in - East 2.3 mph - N/A   Clear
4:00 AM 60.8 °F - 53.6 °F 77% 29.98 in - ESE 2.3 mph - N/A   Clear
5:00 AM 60.8 °F - 53.6 °F 77% 29.98 in - Calm Calm - N/A   Clear
6:00 AM 59.0 °F - 55.4 °F 88% 29.98 in - East 3.5 mph - N/A   Clear
7:00 AM 64.4 °F - 57.2 °F 77% 29.98 in - ESE 3.5 mph - N/A   Clear
8:00 AM 75.2 °F - 60.8 °F 61% 29.98 in - East 3.5 mph - N/A   Clear
8:30 AM 75.2 °F - 59.0 °F 57% 29.98 in - East 3.5 mph - N/A   Clear
9:00 AM 78.8 °F - 60.8 °F 54% 29.98 in - Variable 2.3 mph - N/A   Clear
9:30 AM 80.6 °F 81.1 °F 59.0 °F 48% 29.98 in - Variable 1.2 mph - N/A   Clear
10:00 AM 82.4 °F 82.0 °F 57.2 °F 42% 29.98 in - Variable 3.5 mph - N/A   Clear
10:30 AM 84.2 °F 83.8 °F 59.0 °F 42% 29.98 in - SSW 3.5 mph - N/A   Clear
11:00 AM 84.2 °F 83.8 °F 59.0 °F 42% 29.98 in - NW 5.8 mph - N/A   Clear
11:30 AM 86.0 °F 84.9 °F 57.2 °F 37% 29.98 in - Variable 3.5 mph - N/A   Clear
12:00 PM 86.0 °F 84.5 °F 55.4 °F 35% 29.95 in - Variable 3.5 mph - N/A   Clear
12:30 PM 86.0 °F 84.9 °F 57.2 °F 37% 29.98 in - Variable 6.9 mph - N/A   Clear
1:00 PM 87.8 °F 86.5 °F 57.2 °F 35% 29.95 in - Variable 4.6 mph - N/A   Clear
1:30 PM 89.6 °F 87.7 °F 55.4 °F 31% 29.95 in - Variable 4.6 mph - N/A   Clear
2:00 PM 91.4 °F 90.7 °F 59.0 °F 34% 29.95 in - Variable 3.5 mph - N/A   Clear
2:30 PM 91.4 °F 89.9 °F 57.2 °F 31% 29.95 in - Variable 4.6 mph - N/A   Clear
3:00 PM 89.6 °F 87.7 °F 55.4 °F 31% 29.92 in - Variable 4.6 mph - N/A   Clear
3:30 PM 89.6 °F 88.1 °F 57.2 °F 33% 29.92 in - Variable 5.8 mph - N/A   Clear
4:00 PM 89.6 °F 88.1 °F 57.2 °F 33% 29.92 in - Variable 2.3 mph - N/A   Clear
4:30 PM 87.8 °F 86.1 °F 55.4 °F 33% 29.92 in - West 3.5 mph - N/A   Clear
5:00 PM 89.6 °F 87.3 °F 53.6 °F 29% 29.89 in - West 4.6 mph - N/A   Clear
5:30 PM 91.4 °F 89.4 °F 55.4 °F 29% 29.89 in - Variable 3.5 mph - N/A   Clear
6:00 PM 89.6 °F 87.7 °F 55.4 °F 31% 29.89 in - Variable 2.3 mph - N/A   Clear
6:30 PM 91.4 °F 89.4 °F 55.4 °F 29% 29.89 in - Variable 2.3 mph - N/A   Clear
7:00 PM 89.6 °F 87.7 °F 55.4 °F 31% 29.89 in - Variable 3.5 mph - N/A   Clear
7:30 PM 87.8 °F 86.1 °F 55.4 °F 33% 29.89 in - Variable 1.2 mph - N/A   Clear
8:00 PM 86.0 °F 84.5 °F 55.4 °F 35% 29.89 in - Variable 2.3 mph - N/A   Clear
8:30 PM 80.6 °F 80.5 °F 55.4 °F 42% 29.89 in - Variable 2.3 mph - N/A   Clear
9:00 PM 77.0 °F - 59.0 °F 54% 29.89 in - Variable 2.3 mph - N/A   Clear
10:00 PM 73.4 °F - 57.2 °F 57% 29.89 in - East 4.6 mph - N/A   Clear
11:00 PM 71.6 °F - 55.4 °F 57% 29.89 in - East 5.8 mph - N/A   Clear